Time,TemperatureF,DewpointF,PressureIn,WindDirection,WindDirectionDegrees,WindSpeedMPH,WindSpeedGustMPH,Humidity,HourlyPrecipIn,Conditions,Clouds,dailyrainin,SolarRadiationWatts/m^2,SoftwareType,DateUTC
2013-03-05 00:00:00,32.3,30.0,30.09,East,79,2.0,2.0,91,0.00,,,0.03,0,Wunderground v.1.15,2013-03-05 05:00:00,
2013-03-05 00:01:00,32.3,30.0,30.09,East,79,3.0,3.0,91,0.00,,,0.00,0,Wunderground v.1.15,2013-03-05 05:01:00,
2013-03-05 00:06:00,32.2,29.9,30.08,East,79,3.0,3.0,91,0.00,,,0.00,0,Wunderground v.1.15,2013-03-05 05:06:00,
2013-03-05 00:07:00,32.2,29.9,30.08,East,79,1.0,3.0,91,0.00,,,0.00,0,Wunderground v.1.15,2013-03-05 05:07:00,
2013-03-05 00:08:00,32.2,29.9,30.08,East,79,1.0,3.0,91,0.00,,,0.00,0,Wunderground v.1.15,2013-03-05 05:08:00,
2013-03-05 00:14:00,32.1,29.8,30.08,East,79,2.0,2.0,91,0.00,,,0.00,0,Wunderground v.1.15,2013-03-05 05:14:00,
2013-03-05 00:20:00,32.1,29.8,30.08,ENE,78,2.0,2.0,91,0.00,,,0.00,0,Wunderground v.1.15,2013-03-05 05:20:00,
2013-03-05 00:26:00,32.0,29.9,30.08,ENE,70,0.0,5.0,92,0.00,,,0.00,0,Wunderground v.1.15,2013-03-05 05:26:00,
2013-03-05 00:32:00,32.0,29.9,30.07,NE,49,3.0,3.0,92,0.00,,,0.00,0,Wunderground v.1.15,2013-03-05 05:32:00,
2013-03-05 00:37:00,32.0,29.9,30.08,ENE,71,1.0,3.0,92,0.00,,,0.00,0,Wunderground v.1.15,2013-03-05 05:37:00,
2013-03-05 00:42:00,31.9,29.8,30.07,East,83,2.0,5.0,92,0.00,,,0.00,0,Wunderground v.1.15,2013-03-05 05:42:00,
2013-03-05 00:47:00,32.0,29.9,30.07,ENE,61,4.0,5.0,92,0.00,,,0.00,0,Wunderground v.1.15,2013-03-05 05:47:00,
2013-03-05 00:52:00,32.0,29.9,30.07,ENE,67,3.0,4.0,92,0.00,,,0.00,0,Wunderground v.1.15,2013-03-05 05:52:00,
2013-03-05 00:57:00,32.0,30.2,30.06,ENE,67,2.0,5.0,93,0.00,,,0.00,0,Wunderground v.1.15,2013-03-05 05:57:00,
2013-03-05 01:03:00,32.0,30.2,30.06,ENE,59,4.0,4.0,93,0.00,,,0.00,0,Wunderground v.1.15,2013-03-05 06:03:00,
2013-03-05 01:08:00,31.9,30.1,30.06,NE,41,3.0,4.0,93,0.00,,,0.00,0,Wunderground v.1.15,2013-03-05 06:08:00,
2013-03-05 01:13:00,31.9,30.1,30.06,NE,54,3.0,4.0,93,0.00,,,0.00,0,Wunderground v.1.15,2013-03-05 06:13:00,
2013-03-05 01:19:00,31.9,30.1,30.06,ENE,74,2.0,4.0,93,0.00,,,0.00,0,Wunderground v.1.15,2013-03-05 06:19:00,
2013-03-05 01:25:00,31.9,30.1,30.06,ENE,71,2.0,4.0,93,0.00,,,0.00,0,Wunderground v.1.15,2013-03-05 06:25:00,
2013-03-05 01:30:00,31.9,30.1,30.06,ENE,62,4.0,4.0,93,0.00,,,0.00,0,Wunderground v.1.15,2013-03-05 06:30:00,
2013-03-05 01:36:00,31.9,30.1,30.05,ENE,76,4.0,5.0,93,0.00,,,0.00,0,Wunderground v.1.15,2013-03-05 06:36:00,
2013-03-05 01:41:00,31.9,30.1,30.05,ENE,73,2.0,4.0,93,0.00,,,0.00,0,Wunderground v.1.15,2013-03-05 06:41:00,
2013-03-05 01:46:00,31.9,30.1,30.06,East,88,5.0,5.0,93,0.00,,,0.00,0,Wunderground v.1.15,2013-03-05 06:46:00,
2013-03-05 01:51:00,31.9,30.1,30.05,NE,47,4.0,4.0,93,0.00,,,0.00,0,Wunderground v.1.15,2013-03-05 06:51:00,
2013-03-05 01:56:00,31.9,30.1,30.05,ENE,71,3.0,4.0,93,0.00,,,0.00,0,Wunderground v.1.15,2013-03-05 06:56:00,
2013-03-05 02:01:00,32.0,30.2,30.05,ENE,65,1.0,4.0,93,0.00,,,0.00,0,Wunderground v.1.15,2013-03-05 07:01:00,
2013-03-05 02:06:00,32.0,30.2,30.05,ENE,77,3.0,4.0,93,0.00,,,0.00,0,Wunderground v.1.15,2013-03-05 07:06:00,
2013-03-05 02:11:00,32.0,30.2,30.05,East,86,3.0,5.0,93,0.00,,,0.00,0,Wunderground v.1.15,2013-03-05 07:11:00,
2013-03-05 02:16:00,32.0,30.2,30.04,ENE,78,2.0,6.0,93,0.00,,,0.00,0,Wunderground v.1.15,2013-03-05 07:16:00,
2013-03-05 02:21:00,32.0,30.2,30.04,East,90,2.0,6.0,93,0.00,,,0.00,0,Wunderground v.1.15,2013-03-05 07:21:00,
2013-03-05 02:26:00,32.1,30.3,30.04,East,94,2.0,6.0,93,0.00,,,0.00,0,Wunderground v.1.15,2013-03-05 07:26:00,
2013-03-05 02:31:00,32.1,30.3,30.04,ENE,63,5.0,5.0,93,0.00,,,0.00,0,Wunderground v.1.15,2013-03-05 07:31:00,
2013-03-05 02:36:00,32.1,30.3,30.04,East,94,2.0,5.0,93,0.00,,,0.00,0,Wunderground v.1.15,2013-03-05 07:36:00,
2013-03-05 02:41:00,32.1,30.3,30.03,ENE,76,3.0,6.0,93,0.00,,,0.00,0,Wunderground v.1.15,2013-03-05 07:41:00,
2013-03-05 02:46:00,32.1,30.3,30.03,East,86,3.0,7.0,93,0.00,,,0.00,0,Wunderground v.1.15,2013-03-05 07:46:00,
2013-03-05 02:51:00,32.1,30.3,30.03,East,86,3.0,8.0,93,0.00,,,0.00,0,Wunderground v.1.15,2013-03-05 07:51:00,
2013-03-05 02:56:00,32.2,30.4,30.03,East,86,3.0,8.0,93,0.00,,,0.00,0,Wunderground v.1.15,2013-03-05 07:56:00,
2013-03-05 03:01:00,32.2,30.4,30.02,ENE,73,7.0,7.0,93,0.00,,,0.00,0,Wunderground v.1.15,2013-03-05 08:01:00,
2013-03-05 03:06:00,32.2,30.1,30.02,ESE,109,3.0,7.0,92,0.00,,,0.00,0,Wunderground v.1.15,2013-03-05 08:06:00,
2013-03-05 03:11:00,32.2,30.1,30.02,East,83,5.0,7.0,92,0.00,,,0.00,0,Wunderground v.1.15,2013-03-05 08:11:00,
2013-03-05 03:16:00,32.2,30.1,30.01,East,97,3.0,8.0,92,0.00,,,0.00,0,Wunderground v.1.15,2013-03-05 08:16:00,
2013-03-05 03:21:00,32.2,30.1,30.01,ESE,108,5.0,9.0,92,0.00,,,0.00,0,Wunderground v.1.15,2013-03-05 08:21:00,
2013-03-05 03:26:00,32.3,30.2,30.01,ENE,70,4.0,9.0,92,0.00,,,0.00,0,Wunderground v.1.15,2013-03-05 08:26:00,
2013-03-05 03:31:00,32.3,30.2,30.00,East,87,11.0,11.0,92,0.00,,,0.00,0,Wunderground v.1.15,2013-03-05 08:31:00,
2013-03-05 03:37:00,32.3,30.2,30.00,NE,52,5.0,11.0,92,0.00,,,0.00,0,Wunderground v.1.15,2013-03-05 08:37:00,
2013-03-05 03:42:00,32.2,30.1,30.00,East,90,5.0,7.0,92,0.00,,,0.00,0,Wunderground v.1.15,2013-03-05 08:42:00,
2013-03-05 03:47:00,32.2,30.1,30.00,ENE,76,5.0,10.0,92,0.00,,,0.00,0,Wunderground v.1.15,2013-03-05 08:47:00,
2013-03-05 03:52:00,32.2,30.1,29.99,NE,52,3.0,6.0,92,0.00,,,0.00,0,Wunderground v.1.15,2013-03-05 08:52:00,
2013-03-05 03:57:00,32.2,30.1,29.99,ESE,107,3.0,9.0,92,0.00,,,0.00,0,Wunderground v.1.15,2013-03-05 08:57:00,
2013-03-05 04:02:00,32.2,30.1,30.00,East,93,6.0,6.0,92,0.00,,,0.00,0,Wunderground v.1.15,2013-03-05 09:02:00,
2013-03-05 04:07:00,32.2,30.1,30.00,East,94,3.0,7.0,92,0.00,,,0.00,0,Wunderground v.1.15,2013-03-05 09:07:00,
2013-03-05 04:12:00,32.2,30.1,30.00,East,87,0.0,7.0,92,0.00,,,0.00,0,Wunderground v.1.15,2013-03-05 09:12:00,
2013-03-05 04:17:00,32.2,30.1,30.00,NE,56,3.0,7.0,92,0.00,,,0.00,0,Wunderground v.1.15,2013-03-05 09:17:00,
2013-03-05 04:22:00,32.2,30.1,30.00,ESE,110,3.0,3.0,92,0.00,,,0.00,0,Wunderground v.1.15,2013-03-05 09:22:00,
2013-03-05 04:27:00,32.3,30.2,29.99,East,89,2.0,6.0,92,0.00,,,0.00,0,Wunderground v.1.15,2013-03-05 09:27:00,
2013-03-05 04:32:00,32.3,30.2,30.00,East,83,5.0,7.0,92,0.00,,,0.00,0,Wunderground v.1.15,2013-03-05 09:32:00,
2013-03-05 04:37:00,32.3,30.2,29.99,ENE,71,3.0,7.0,92,0.00,,,0.00,0,Wunderground v.1.15,2013-03-05 09:37:00,
2013-03-05 04:42:00,32.3,30.2,29.99,ENE,72,2.0,5.0,92,0.00,,,0.00,0,Wunderground v.1.15,2013-03-05 09:42:00,
2013-03-05 04:47:00,32.3,30.2,29.99,East,81,5.0,6.0,92,0.00,,,0.00,0,Wunderground v.1.15,2013-03-05 09:47:00,
2013-03-05 04:52:00,32.3,30.2,29.98,East,97,5.0,6.0,92,0.00,,,0.00,0,Wunderground v.1.15,2013-03-05 09:52:00,
2013-03-05 04:57:00,32.3,30.5,29.98,ENE,74,3.0,7.0,93,0.00,,,0.00,0,Wunderground v.1.15,2013-03-05 09:57:00,
2013-03-05 05:02:00,32.3,30.5,29.98,ENE,78,2.0,4.0,93,0.00,,,0.00,0,Wunderground v.1.15,2013-03-05 10:02:00,
2013-03-05 05:07:00,32.2,30.1,29.98,East,80,5.0,6.0,92,0.00,,,0.00,0,Wunderground v.1.15,2013-03-05 10:07:00,
2013-03-05 05:12:00,32.2,30.1,29.98,ESE,104,1.0,7.0,92,0.00,,,0.00,0,Wunderground v.1.15,2013-03-05 10:12:00,
2013-03-05 05:17:00,32.2,30.1,29.98,East,101,6.0,8.0,92,0.00,,,0.00,0,Wunderground v.1.15,2013-03-05 10:17:00,
2013-03-05 05:22:00,32.1,30.3,29.98,East,97,2.0,5.0,93,0.00,,,0.00,0,Wunderground v.1.15,2013-03-05 10:22:00,
2013-03-05 05:27:00,32.1,30.3,29.98,ESE,114,3.0,5.0,93,0.00,,,0.00,0,Wunderground v.1.15,2013-03-05 10:27:00,
2013-03-05 05:32:00,32.1,30.3,29.98,ESE,103,4.0,5.0,93,0.00,,,0.00,0,Wunderground v.1.15,2013-03-05 10:32:00,
2013-03-05 05:37:00,32.0,30.2,29.98,ESE,113,4.0,7.0,93,0.00,,,0.00,0,Wunderground v.1.15,2013-03-05 10:37:00,
2013-03-05 05:42:00,32.0,30.2,29.98,ESE,111,8.0,9.0,93,0.00,,,0.00,0,Wunderground v.1.15,2013-03-05 10:42:00,
2013-03-05 05:47:00,32.0,30.2,29.98,ESE,107,1.0,10.0,93,0.00,,,0.00,0,Wunderground v.1.15,2013-03-05 10:47:00,
2013-03-05 05:52:00,31.9,30.1,29.98,East,101,2.0,6.0,93,0.00,,,0.00,0,Wunderground v.1.15,2013-03-05 10:52:00,
2013-03-05 05:57:00,31.9,30.1,29.97,East,86,7.0,8.0,93,0.00,,,0.00,0,Wunderground v.1.15,2013-03-05 10:57:00,
2013-03-05 06:03:00,31.9,30.1,29.97,East,86,7.0,11.0,93,0.00,,,0.00,0,Wunderground v.1.15,2013-03-05 11:03:00,
2013-03-05 06:08:00,31.8,29.7,29.97,East,79,7.0,11.0,92,0.00,,,0.00,0,Wunderground v.1.15,2013-03-05 11:08:00,
2013-03-05 06:13:00,31.8,29.7,29.97,ESE,118,5.0,10.0,92,0.00,,,0.00,0,Wunderground v.1.15,2013-03-05 11:13:00,
2013-03-05 06:18:00,31.8,29.7,29.97,ESE,110,10.0,10.0,92,0.00,,,0.00,0,Wunderground v.1.15,2013-03-05 11:18:00,
2013-03-05 06:23:00,31.8,29.7,29.97,East,96,5.0,10.0,92,0.00,,,0.00,0,Wunderground v.1.15,2013-03-05 11:23:00,
2013-03-05 06:28:00,31.8,29.7,29.97,East,87,10.0,11.0,92,0.00,,,0.00,0,Wunderground v.1.15,2013-03-05 11:28:00,
2013-03-05 06:33:00,31.8,29.7,29.97,East,91,7.0,9.0,92,0.00,,,0.00,0,Wunderground v.1.15,2013-03-05 11:33:00,
2013-03-05 06:38:00,31.9,29.8,29.96,East,94,2.0,11.0,92,0.00,,,0.00,0,Wunderground v.1.15,2013-03-05 11:38:00,
2013-03-05 06:43:00,31.8,29.7,29.96,East,96,3.0,11.0,92,0.00,,,0.00,0,Wunderground v.1.15,2013-03-05 11:43:00,
2013-03-05 06:48:00,31.8,29.7,29.97,SE,138,5.0,11.0,92,0.00,,,0.00,0,Wunderground v.1.15,2013-03-05 11:48:00,
2013-03-05 06:53:00,31.8,29.7,29.97,East,80,3.0,9.0,92,0.00,,,0.00,0,Wunderground v.1.15,2013-03-05 11:53:00,
2013-03-05 06:58:00,31.7,29.6,29.97,ENE,68,7.0,9.0,92,0.00,,,0.00,0,Wunderground v.1.15,2013-03-05 11:58:00,
2013-03-05 07:03:00,31.8,29.7,29.96,ENE,61,4.0,7.0,92,0.00,,,0.00,0,Wunderground v.1.15,2013-03-05 12:03:00,
2013-03-05 07:09:00,31.7,29.6,29.96,East,92,2.0,8.0,92,0.00,,,0.00,0,Wunderground v.1.15,2013-03-05 12:09:00,
2013-03-05 07:15:00,31.7,29.6,29.95,NE,34,4.0,10.0,92,0.00,,,0.00,7,Wunderground v.1.15,2013-03-05 12:15:00,
2013-03-05 07:20:00,31.7,29.6,29.94,East,100,2.0,7.0,92,0.00,,,0.00,9,Wunderground v.1.15,2013-03-05 12:20:00,
2013-03-05 07:25:00,31.7,29.6,29.95,East,86,2.0,8.0,92,0.00,,,0.00,14,Wunderground v.1.15,2013-03-05 12:25:00,
2013-03-05 07:30:00,31.7,29.6,29.95,ENE,65,7.0,7.0,92,0.00,,,0.00,14,Wunderground v.1.15,2013-03-05 12:30:00,
2013-03-05 07:35:00,31.7,29.6,29.95,ENE,73,8.0,10.0,92,0.00,,,0.00,19,Wunderground v.1.15,2013-03-05 12:35:00,
2013-03-05 07:40:00,31.8,29.7,29.96,East,98,6.0,6.0,92,0.00,,,0.00,16,Wunderground v.1.15,2013-03-05 12:40:00,
2013-03-05 07:45:00,31.8,29.7,29.97,NE,51,4.0,9.0,92,0.00,,,0.00,18,Wunderground v.1.15,2013-03-05 12:45:00,
2013-03-05 07:50:00,31.8,29.7,29.96,East,92,6.0,7.0,92,0.00,,,0.00,28,Wunderground v.1.15,2013-03-05 12:50:00,
2013-03-05 07:55:00,31.9,29.8,29.96,East,88,6.0,9.0,92,0.00,,,0.00,33,Wunderground v.1.15,2013-03-05 12:55:00,
2013-03-05 08:00:00,31.8,29.7,29.96,East,96,6.0,8.0,92,0.00,,,0.00,35,Wunderground v.1.15,2013-03-05 13:00:00,
2013-03-05 08:05:00,31.9,29.8,29.96,ENE,72,5.0,10.0,92,0.00,,,0.00,32,Wunderground v.1.15,2013-03-05 13:05:00,
2013-03-05 08:10:00,31.8,29.7,29.95,ESE,119,10.0,10.0,92,0.00,,,0.00,25,Wunderground v.1.15,2013-03-05 13:10:00,
2013-03-05 08:15:00,31.8,29.7,29.95,ESE,102,8.0,10.0,92,0.00,,,0.00,19,Wunderground v.1.15,2013-03-05 13:15:00,
2013-03-05 08:20:00,31.8,29.7,29.95,ENE,76,4.0,10.0,92,0.00,,,0.00,18,Wunderground v.1.15,2013-03-05 13:20:00,
2013-03-05 08:25:00,31.8,29.5,29.95,East,81,6.0,11.0,91,0.00,,,0.00,21,Wunderground v.1.15,2013-03-05 13:25:00,
2013-03-05 08:30:00,31.8,29.5,29.95,East,95,5.0,7.0,91,0.00,,,0.00,26,Wunderground v.1.15,2013-03-05 13:30:00,
2013-03-05 08:35:00,31.8,29.5,29.95,East,99,6.0,9.0,91,0.00,,,0.00,33,Wunderground v.1.15,2013-03-05 13:35:00,
2013-03-05 08:40:00,31.8,29.5,29.94,East,94,2.0,5.0,91,0.00,,,0.00,40,Wunderground v.1.15,2013-03-05 13:40:00,
2013-03-05 09:10:00,32.3,29.7,29.93,East,88,9.0,9.0,90,0.00,,,0.00,72,Wunderground v.1.15,2013-03-05 14:10:00,
2013-03-05 09:15:00,32.4,29.8,29.93,East,86,3.0,9.0,90,0.00,,,0.00,76,Wunderground v.1.15,2013-03-05 14:15:00,
2013-03-05 09:20:00,32.5,29.9,29.93,East,82,5.0,7.0,90,0.00,,,0.00,88,Wunderground v.1.15,2013-03-05 14:20:00,
2013-03-05 09:25:00,32.6,29.7,29.93,NE,34,2.0,8.0,89,0.00,,,0.00,67,Wunderground v.1.15,2013-03-05 14:25:00,
2013-03-05 09:30:00,32.6,29.7,29.93,East,82,6.0,6.0,89,0.00,,,0.00,69,Wunderground v.1.15,2013-03-05 14:30:00,
2013-03-05 09:35:00,32.7,29.8,29.93,East,83,7.0,10.0,89,0.00,,,0.00,104,Wunderground v.1.15,2013-03-05 14:35:00,
2013-03-05 09:40:00,32.8,29.9,29.93,ENE,73,7.0,8.0,89,0.00,,,0.00,148,Wunderground v.1.15,2013-03-05 14:40:00,
2013-03-05 09:45:00,33.0,30.1,29.92,East,81,6.0,14.0,89,0.00,,,0.00,120,Wunderground v.1.15,2013-03-05 14:45:00,
2013-03-05 09:50:00,33.0,30.1,29.92,East,95,6.0,8.0,89,0.00,,,0.00,132,Wunderground v.1.15,2013-03-05 14:50:00,
2013-03-05 09:55:00,33.2,30.0,29.92,ENE,72,7.0,13.0,88,0.00,,,0.00,137,Wunderground v.1.15,2013-03-05 14:55:00,
2013-03-05 10:00:00,33.4,30.5,29.92,ESE,103,8.0,9.0,89,0.00,,,0.00,134,Wunderground v.1.15,2013-03-05 15:00:00,
2013-03-05 10:05:00,33.4,30.2,29.92,ENE,66,8.0,12.0,88,0.00,,,0.00,139,Wunderground v.1.15,2013-03-05 15:05:00,
2013-03-05 10:10:00,33.5,30.3,29.91,SSE,148,8.0,9.0,88,0.00,,,0.00,169,Wunderground v.1.15,2013-03-05 15:10:00,
2013-03-05 10:15:00,33.7,30.5,29.91,East,79,8.0,10.0,88,0.00,,,0.00,202,Wunderground v.1.15,2013-03-05 15:15:00,
2013-03-05 10:20:00,33.9,30.7,29.91,ESE,103,4.0,7.0,88,0.00,,,0.00,204,Wunderground v.1.15,2013-03-05 15:20:00,
2013-03-05 10:25:00,34.3,30.8,29.90,East,94,5.0,16.0,87,0.00,,,0.00,185,Wunderground v.1.15,2013-03-05 15:25:00,
2013-03-05 10:30:00,34.4,30.9,29.90,ESE,105,3.0,7.0,87,0.00,,,0.01,183,Wunderground v.1.15,2013-03-05 15:30:00,
2013-03-05 10:35:00,34.7,31.2,29.89,SE,131,9.0,13.0,87,0.00,,,0.01,153,Wunderground v.1.15,2013-03-05 15:35:00,
2013-03-05 10:40:00,34.6,30.8,29.89,East,89,5.0,7.0,86,0.00,,,0.01,146,Wunderground v.1.15,2013-03-05 15:40:00,
2013-03-05 10:45:00,34.7,30.9,29.89,East,88,2.0,11.0,86,0.00,,,0.01,125,Wunderground v.1.15,2013-03-05 15:45:00,
2013-03-05 10:50:00,34.7,30.7,29.88,East,92,8.0,9.0,85,0.00,,,0.01,121,Wunderground v.1.15,2013-03-05 15:50:00,
2013-03-05 10:55:00,34.7,30.4,29.88,East,91,6.0,14.0,84,0.00,,,0.01,105,Wunderground v.1.15,2013-03-05 15:55:00,
2013-03-05 11:00:00,34.7,30.4,29.88,ESE,114,7.0,8.0,84,0.00,,,0.01,120,Wunderground v.1.15,2013-03-05 16:00:00,
2013-03-05 11:05:00,34.8,30.5,29.87,ENE,73,7.0,11.0,84,0.00,,,0.01,105,Wunderground v.1.15,2013-03-05 16:05:00,
2013-03-05 11:11:00,34.7,30.1,29.87,SE,130,8.0,8.0,83,0.00,,,0.01,98,Wunderground v.1.15,2013-03-05 16:11:00,
2013-03-05 11:16:00,34.6,30.0,29.87,East,84,8.0,11.0,83,0.00,,,0.01,86,Wunderground v.1.15,2013-03-05 16:16:00,
2013-03-05 11:21:00,34.6,30.0,29.87,ENE,62,4.0,8.0,83,0.00,,,0.01,74,Wunderground v.1.15,2013-03-05 16:21:00,
2013-03-05 11:26:00,34.6,30.0,29.87,ENE,78,5.0,13.0,83,0.00,,,0.02,63,Wunderground v.1.15,2013-03-05 16:26:00,
2013-03-05 11:31:00,34.5,29.6,29.87,ESE,122,8.0,13.0,82,0.00,,,0.02,58,Wunderground v.1.15,2013-03-05 16:31:00,
2013-03-05 11:36:00,34.5,29.3,29.87,ESE,103,5.0,13.0,81,0.00,,,0.02,67,Wunderground v.1.15,2013-03-05 16:36:00,
2013-03-05 11:41:00,34.5,29.3,29.87,ESE,113,9.0,13.0,81,0.00,,,0.02,65,Wunderground v.1.15,2013-03-05 16:41:00,
2013-03-05 11:46:00,34.5,29.3,29.86,East,90,15.0,15.0,81,0.00,,,0.02,54,Wunderground v.1.15,2013-03-05 16:46:00,
2013-03-05 11:51:00,34.5,29.3,29.85,ESE,114,8.0,16.0,81,0.00,,,0.02,63,Wunderground v.1.15,2013-03-05 16:51:00,
2013-03-05 11:56:00,34.4,29.2,29.85,East,88,7.0,16.0,81,0.00,,,0.02,65,Wunderground v.1.15,2013-03-05 16:56:00,
2013-03-05 12:01:00,34.4,29.2,29.85,ESE,107,3.0,7.0,81,0.00,,,0.02,63,Wunderground v.1.15,2013-03-05 17:01:00,
2013-03-05 12:06:00,34.5,29.6,29.85,ESE,122,5.0,11.0,82,0.00,,,0.02,79,Wunderground v.1.15,2013-03-05 17:06:00,
2013-03-05 12:11:00,34.6,29.7,29.84,East,88,10.0,13.0,82,0.00,,,0.02,83,Wunderground v.1.15,2013-03-05 17:11:00,
2013-03-05 12:16:00,34.6,29.4,29.83,ESE,107,8.0,13.0,81,0.00,,,0.02,62,Wunderground v.1.15,2013-03-05 17:16:00,
2013-03-05 12:21:00,34.6,29.4,29.83,ESE,107,4.0,9.0,81,0.00,,,0.02,86,Wunderground v.1.15,2013-03-05 17:21:00,
2013-03-05 12:26:00,34.7,29.8,29.83,ENE,76,7.0,10.0,82,0.00,,,0.02,79,Wunderground v.1.15,2013-03-05 17:26:00,
2013-03-05 12:31:00,34.8,29.9,29.82,ESE,111,10.0,10.0,82,0.00,,,0.02,86,Wunderground v.1.15,2013-03-05 17:31:00,
2013-03-05 12:36:00,34.8,29.6,29.82,ENE,71,7.0,11.0,81,0.00,,,0.02,100,Wunderground v.1.15,2013-03-05 17:36:00,
2013-03-05 12:41:00,34.9,29.7,29.82,NE,47,6.0,17.0,81,0.00,,,0.02,97,Wunderground v.1.15,2013-03-05 17:41:00,
2013-03-05 12:46:00,35.1,29.9,29.81,NE,36,6.0,17.0,81,0.00,,,0.02,113,Wunderground v.1.15,2013-03-05 17:46:00,
2013-03-05 12:51:00,35.3,30.1,29.80,ESE,114,8.0,11.0,81,0.00,,,0.02,113,Wunderground v.1.15,2013-03-05 17:51:00,
2013-03-05 12:56:00,35.4,29.8,29.80,East,86,5.0,13.0,80,0.00,,,0.02,134,Wunderground v.1.15,2013-03-05 17:56:00,
2013-03-05 13:01:00,35.4,29.8,29.80,East,91,7.0,10.0,80,0.00,,,0.02,102,Wunderground v.1.15,2013-03-05 18:01:00,
2013-03-05 13:06:00,35.5,29.9,29.80,ENE,62,7.0,12.0,80,0.00,,,0.02,130,Wunderground v.1.15,2013-03-05 18:06:00,
2013-03-05 13:11:00,35.6,30.0,29.79,ENE,69,9.0,11.0,80,0.00,,,0.02,113,Wunderground v.1.15,2013-03-05 18:11:00,
2013-03-05 13:16:00,35.7,30.1,29.79,East,88,5.0,11.0,80,0.00,,,0.02,65,Wunderground v.1.15,2013-03-05 18:16:00,
2013-03-05 13:21:00,35.8,30.2,29.78,East,96,7.0,9.0,80,0.00,,,0.02,72,Wunderground v.1.15,2013-03-05 18:21:00,
2013-03-05 13:26:00,35.9,30.3,29.77,East,81,3.0,11.0,80,0.00,,,0.02,91,Wunderground v.1.15,2013-03-05 18:26:00,
2013-03-05 13:31:00,35.9,30.0,29.77,ESE,108,7.0,10.0,79,0.00,,,0.02,90,Wunderground v.1.15,2013-03-05 18:31:00,
2013-03-05 13:36:00,36.0,30.1,29.76,East,92,8.0,10.0,79,0.00,,,0.02,76,Wunderground v.1.15,2013-03-05 18:36:00,
2013-03-05 13:42:00,36.1,30.2,29.76,NE,49,4.0,10.0,79,0.00,,,0.02,109,Wunderground v.1.15,2013-03-05 18:42:00,
2013-03-05 13:47:00,36.2,30.3,29.75,East,87,8.0,14.0,79,0.00,,,0.02,88,Wunderground v.1.15,2013-03-05 18:47:00,
2013-03-05 13:52:00,36.3,30.1,29.75,NE,56,6.0,15.0,78,0.00,,,0.02,70,Wunderground v.1.15,2013-03-05 18:52:00,
2013-03-05 13:57:00,36.4,30.2,29.74,East,88,6.0,15.0,78,0.00,,,0.02,67,Wunderground v.1.15,2013-03-05 18:57:00,
2013-03-05 14:02:00,36.4,30.5,29.74,East,88,9.0,9.0,79,0.00,,,0.03,58,Wunderground v.1.15,2013-03-05 19:02:00,
2013-03-05 14:07:00,36.5,30.6,29.74,ESE,105,5.0,13.0,79,0.00,,,0.03,46,Wunderground v.1.15,2013-03-05 19:07:00,
2013-03-05 14:12:00,36.5,30.6,29.74,East,90,5.0,9.0,79,0.00,,,0.03,44,Wunderground v.1.15,2013-03-05 19:12:00,
2013-03-05 14:17:00,36.4,30.8,29.73,East,91,3.0,11.0,80,0.00,,,0.03,56,Wunderground v.1.15,2013-03-05 19:17:00,
2013-03-05 14:22:00,36.3,30.7,29.73,ESE,115,7.0,10.0,80,0.00,,,0.03,51,Wunderground v.1.15,2013-03-05 19:22:00,
2013-03-05 14:27:00,36.4,30.8,29.72,East,83,7.0,10.0,80,0.00,,,0.03,47,Wunderground v.1.15,2013-03-05 19:27:00,
2013-03-05 14:32:00,36.4,30.8,29.73,ENE,67,8.0,13.0,80,0.00,,,0.03,35,Wunderground v.1.15,2013-03-05 19:32:00,
2013-03-05 14:37:00,36.4,30.8,29.73,East,91,8.0,13.0,80,0.00,,,0.03,32,Wunderground v.1.15,2013-03-05 19:37:00,
2013-03-05 14:42:00,36.4,31.1,29.72,ENE,76,4.0,10.0,81,0.00,,,0.03,40,Wunderground v.1.15,2013-03-05 19:42:00,
2013-03-05 14:47:00,36.2,31.2,29.72,ESE,109,9.0,10.0,82,0.00,,,0.03,30,Wunderground v.1.15,2013-03-05 19:47:00,
2013-03-05 14:52:00,36.1,31.7,29.72,East,81,2.0,8.0,84,0.00,,,0.03,32,Wunderground v.1.15,2013-03-05 19:52:00,
2013-03-05 14:57:00,35.9,31.8,29.72,East,92,3.0,8.0,85,0.00,,,0.04,30,Wunderground v.1.15,2013-03-05 19:57:00,
2013-03-05 15:02:00,35.7,31.9,29.71,East,80,7.0,10.0,86,0.00,,,0.04,32,Wunderground v.1.15,2013-03-05 20:02:00,
2013-03-05 15:07:00,35.6,32.1,29.71,East,92,8.0,11.0,87,0.00,,,0.04,23,Wunderground v.1.15,2013-03-05 20:07:00,
2013-03-05 15:12:00,35.5,32.0,29.70,ENE,63,7.0,10.0,87,0.00,,,0.04,25,Wunderground v.1.15,2013-03-05 20:12:00,
2013-03-05 15:17:00,35.5,32.3,29.70,ESE,116,10.0,12.0,88,0.00,,,0.04,28,Wunderground v.1.15,2013-03-05 20:17:00,
2013-03-05 15:22:00,35.4,32.2,29.69,East,89,7.0,14.0,88,0.00,,,0.04,42,Wunderground v.1.15,2013-03-05 20:22:00,
2013-03-05 15:27:00,35.3,32.4,29.69,East,101,15.0,15.0,89,0.00,,,0.04,37,Wunderground v.1.15,2013-03-05 20:27:00,
2013-03-05 15:33:00,35.3,32.7,29.68,ENE,58,9.0,10.0,90,0.00,,,0.04,35,Wunderground v.1.15,2013-03-05 20:33:00,
2013-03-05 15:38:00,35.3,32.7,29.68,East,90,5.0,12.0,90,0.00,,,0.04,33,Wunderground v.1.15,2013-03-05 20:38:00,
2013-03-05 15:43:00,35.3,32.7,29.68,East,80,8.0,10.0,90,0.00,,,0.04,21,Wunderground v.1.15,2013-03-05 20:43:00,
2013-03-05 15:48:00,35.2,32.8,29.68,ENE,65,7.0,11.0,91,0.00,,,0.04,18,Wunderground v.1.15,2013-03-05 20:48:00,
2013-03-05 15:53:00,35.2,32.8,29.67,East,100,9.0,13.0,91,0.00,,,0.04,23,Wunderground v.1.15,2013-03-05 20:53:00,
2013-03-05 15:58:00,35.2,32.8,29.67,East,92,5.0,13.0,91,0.00,,,0.05,26,Wunderground v.1.15,2013-03-05 20:58:00,
2013-03-05 16:03:00,35.3,32.9,29.66,East,80,10.0,10.0,91,0.00,,,0.05,28,Wunderground v.1.15,2013-03-05 21:03:00,
2013-03-05 16:08:00,35.3,32.9,29.66,NE,53,4.0,10.0,91,0.00,,,0.05,32,Wunderground v.1.15,2013-03-05 21:08:00,
2013-03-05 16:13:00,35.3,32.9,29.65,East,101,5.0,13.0,91,0.00,,,0.05,30,Wunderground v.1.15,2013-03-05 21:13:00,
2013-03-05 16:18:00,35.3,32.9,29.65,East,98,6.0,13.0,91,0.00,,,0.05,28,Wunderground v.1.15,2013-03-05 21:18:00,
2013-03-05 16:23:00,35.4,33.0,29.64,East,88,6.0,12.0,91,0.00,,,0.05,30,Wunderground v.1.15,2013-03-05 21:23:00,
2013-03-05 16:28:00,35.6,33.0,29.64,ENE,72,3.0,12.0,90,0.00,,,0.05,30,Wunderground v.1.15,2013-03-05 21:28:00,
2013-03-05 16:33:00,35.7,33.1,29.64,NE,39,11.0,11.0,90,0.00,,,0.05,30,Wunderground v.1.15,2013-03-05 21:33:00,
2013-03-05 16:38:00,35.9,33.0,29.64,ENE,76,11.0,11.0,89,0.00,,,0.05,25,Wunderground v.1.15,2013-03-05 21:38:00,
2013-03-05 16:43:00,36.1,32.9,29.64,ENE,65,8.0,13.0,88,0.00,,,0.05,19,Wunderground v.1.15,2013-03-05 21:43:00,
2013-03-05 16:48:00,36.2,32.7,29.64,NE,46,3.0,14.0,87,0.00,,,0.05,21,Wunderground v.1.15,2013-03-05 21:48:00,
2013-03-05 16:54:00,36.3,32.5,29.63,ENE,58,5.0,13.0,86,0.00,,,0.05,19,Wunderground v.1.15,2013-03-05 21:54:00,
2013-03-05 16:59:00,36.4,32.6,29.63,ESE,102,9.0,13.0,86,0.00,,,0.05,21,Wunderground v.1.15,2013-03-05 21:59:00,
2013-03-05 17:04:00,36.3,32.2,29.62,East,92,5.0,10.0,85,0.00,,,0.05,18,Wunderground v.1.15,2013-03-05 22:04:00,
2013-03-05 17:09:00,36.3,32.2,29.62,East,90,5.0,11.0,85,0.00,,,0.06,14,Wunderground v.1.15,2013-03-05 22:09:00,
2013-03-05 17:14:00,36.3,32.5,29.62,East,97,8.0,10.0,86,0.00,,,0.06,16,Wunderground v.1.15,2013-03-05 22:14:00,
2013-03-05 17:19:00,36.2,32.4,29.62,NE,53,5.0,12.0,86,0.00,,,0.06,12,Wunderground v.1.15,2013-03-05 22:19:00,
2013-03-05 17:24:00,36.1,32.3,29.61,East,96,6.0,11.0,86,0.00,,,0.07,11,Wunderground v.1.15,2013-03-05 22:24:00,
2013-03-05 17:29:00,36.1,32.3,29.61,East,89,3.0,11.0,86,0.00,,,0.07,11,Wunderground v.1.15,2013-03-05 22:29:00,
2013-03-05 17:34:00,36.0,32.2,29.61,ENE,65,4.0,11.0,86,0.06,,,0.07,9,Wunderground v.1.15,2013-03-05 22:34:00,
2013-03-05 17:39:00,36.0,32.5,29.60,ENE,77,2.0,11.0,87,0.06,,,0.08,7,Wunderground v.1.15,2013-03-05 22:39:00,
2013-03-05 17:44:00,36.0,32.5,29.60,ENE,57,3.0,11.0,87,0.06,,,0.08,5,Wunderground v.1.15,2013-03-05 22:44:00,
2013-03-05 17:49:00,36.0,32.5,29.60,East,79,8.0,15.0,87,0.04,,,0.08,5,Wunderground v.1.15,2013-03-05 22:49:00,
2013-03-05 17:54:00,36.1,32.6,29.60,NE,51,3.0,14.0,87,0.00,,,0.08,5,Wunderground v.1.15,2013-03-05 22:54:00,
2013-03-05 17:59:00,36.1,32.6,29.60,NE,51,5.0,14.0,87,0.00,,,0.09,0,Wunderground v.1.15,2013-03-05 22:59:00,
2013-03-05 18:04:00,36.1,32.6,29.60,ENE,74,5.0,10.0,87,0.00,,,0.09,0,Wunderground v.1.15,2013-03-05 23:04:00,
2013-03-05 18:09:00,36.1,32.6,29.60,East,81,6.0,11.0,87,0.04,,,0.10,0,Wunderground v.1.15,2013-03-05 23:09:00,
2013-03-05 18:14:00,36.1,32.9,29.60,ENE,76,7.0,11.0,88,0.04,,,0.10,0,Wunderground v.1.15,2013-03-05 23:14:00,
2013-03-05 18:19:00,36.1,32.9,29.60,East,87,6.0,6.0,88,0.04,,,0.10,0,Wunderground v.1.15,2013-03-05 23:19:00,
2013-03-05 18:25:00,36.1,32.9,29.59,ENE,72,8.0,10.0,88,0.04,,,0.10,0,Wunderground v.1.15,2013-03-05 23:25:00,
2013-03-05 18:30:00,36.1,33.2,29.59,East,81,6.0,6.0,89,0.00,,,0.10,0,Wunderground v.1.15,2013-03-05 23:30:00,
2013-03-05 18:35:00,36.1,33.2,29.59,East,101,3.0,11.0,89,0.00,,,0.10,0,Wunderground v.1.15,2013-03-05 23:35:00,
2013-03-05 18:40:00,36.1,33.2,29.60,ENE,65,2.0,5.0,89,0.00,,,0.11,0,Wunderground v.1.15,2013-03-05 23:40:00,
2013-03-05 18:45:00,36.0,33.1,29.60,ESE,112,2.0,9.0,89,0.07,,,0.12,0,Wunderground v.1.15,2013-03-05 23:45:00,
2013-03-05 18:50:00,35.9,33.0,29.60,East,82,6.0,6.0,89,0.07,,,0.12,0,Wunderground v.1.15,2013-03-05 23:50:00,
2013-03-05 18:55:00,35.9,33.3,29.60,East,94,5.0,6.0,90,0.14,,,0.14,0,Wunderground v.1.15,2013-03-05 23:55:00,
2013-03-05 19:00:00,35.8,33.2,29.60,NE,53,4.0,8.0,90,0.11,,,0.14,0,Wunderground v.1.15,2013-03-06 00:00:00,
2013-03-05 19:05:00,35.7,33.1,29.60,East,91,1.0,8.0,90,0.18,,,0.16,0,Wunderground v.1.15,2013-03-06 00:05:00,
2013-03-05 19:10:00,35.6,33.2,29.60,ENE,78,4.0,5.0,91,0.11,,,0.16,0,Wunderground v.1.15,2013-03-06 00:10:00,
2013-03-05 19:15:00,35.6,33.2,29.60,ENE,69,0.0,6.0,91,0.13,,,0.18,0,Wunderground v.1.15,2013-03-06 00:15:00,
2013-03-05 19:20:00,35.5,33.1,29.60,ENE,59,4.0,4.0,91,0.11,,,0.18,0,Wunderground v.1.15,2013-03-06 00:20:00,
2013-03-05 19:25:00,35.5,33.1,29.60,NE,45,2.0,6.0,91,0.08,,,0.19,0,Wunderground v.1.15,2013-03-06 00:25:00,
2013-03-05 19:30:00,35.4,33.3,29.60,NE,49,2.0,2.0,92,0.10,,,0.20,0,Wunderground v.1.15,2013-03-06 00:30:00,
2013-03-05 19:35:00,35.3,33.2,29.60,NE,49,0.0,3.0,92,0.08,,,0.20,0,Wunderground v.1.15,2013-03-06 00:35:00,
2013-03-05 19:40:00,35.3,33.2,29.60,NE,49,0.0,0.0,92,0.18,,,0.22,0,Wunderground v.1.15,2013-03-06 00:40:00,
2013-03-05 19:45:00,35.2,33.4,29.60,NE,49,0.0,1.0,93,0.14,,,0.23,0,Wunderground v.1.15,2013-03-06 00:45:00,
2013-03-05 19:50:00,35.2,33.4,29.60,West,271,0.0,3.0,93,0.16,,,0.24,0,Wunderground v.1.15,2013-03-06 00:50:00,
2013-03-05 19:55:00,35.1,33.3,29.61,West,271,4.0,4.0,93,0.13,,,0.25,0,Wunderground v.1.15,2013-03-06 00:55:00,
2013-03-05 20:00:00,34.9,33.1,29.61,West,271,3.0,4.0,93,0.13,,,0.26,0,Wunderground v.1.15,2013-03-06 01:00:00,
2013-03-05 20:05:00,34.6,32.8,29.61,West,271,1.0,5.0,93,0.07,,,0.27,0,Wunderground v.1.15,2013-03-06 01:05:00,
2013-03-05 20:10:00,34.4,32.6,29.61,West,271,2.0,3.0,93,0.07,,,0.27,0,Wunderground v.1.15,2013-03-06 01:10:00,
2013-03-05 20:15:00,34.2,32.7,29.61,West,271,0.0,5.0,94,0.07,,,0.28,0,Wunderground v.1.15,2013-03-06 01:15:00,
2013-03-05 20:20:00,34.1,32.6,29.61,West,271,0.0,1.0,94,0.07,,,0.28,0,Wunderground v.1.15,2013-03-06 01:20:00,
2013-03-05 20:25:00,33.9,32.4,29.61,West,271,0.0,4.0,94,0.05,,,0.28,0,Wunderground v.1.15,2013-03-06 01:25:00,
2013-03-05 20:30:00,33.7,32.2,29.61,West,271,0.0,2.0,94,0.04,,,0.28,0,Wunderground v.1.15,2013-03-06 01:30:00,
2013-03-05 20:35:00,33.4,31.9,29.61,West,271,1.0,3.0,94,0.00,,,0.28,0,Wunderground v.1.15,2013-03-06 01:35:00,
2013-03-05 20:40:00,33.1,31.6,29.61,West,271,0.0,1.0,94,0.00,,,0.28,0,Wunderground v.1.15,2013-03-06 01:40:00,
2013-03-05 20:46:00,32.9,31.4,29.61,West,271,0.0,1.0,94,0.00,,,0.28,0,Wunderground v.1.15,2013-03-06 01:46:00,
2013-03-05 20:51:00,32.8,31.5,29.61,West,271,0.0,0.0,95,0.00,,,0.28,0,Wunderground v.1.15,2013-03-06 01:51:00,
2013-03-05 20:56:00,32.6,31.3,29.61,West,271,1.0,3.0,95,0.00,,,0.28,0,Wunderground v.1.15,2013-03-06 01:56:00,
2013-03-05 21:01:00,32.5,31.2,29.61,West,271,0.0,0.0,95,0.00,,,0.28,0,Wunderground v.1.15,2013-03-06 02:01:00,
2013-03-05 21:06:00,32.5,31.2,29.61,West,271,0.0,0.0,95,0.00,,,0.28,0,Wunderground v.1.15,2013-03-06 02:06:00,
2013-03-05 21:11:00,32.4,31.1,29.60,West,271,0.0,0.0,95,0.00,,,0.28,0,Wunderground v.1.15,2013-03-06 02:11:00,
2013-03-05 21:16:00,32.4,31.1,29.61,West,271,0.0,1.0,95,0.00,,,0.28,0,Wunderground v.1.15,2013-03-06 02:16:00,
2013-03-05 21:21:00,32.4,31.1,29.61,West,271,0.0,1.0,95,0.00,,,0.28,0,Wunderground v.1.15,2013-03-06 02:21:00,
2013-03-05 21:26:00,32.4,31.1,29.60,NNW,340,0.0,3.0,95,0.00,,,0.28,0,Wunderground v.1.15,2013-03-06 02:26:00,
2013-03-05 21:31:00,32.4,31.4,29.60,NNW,340,0.0,0.0,96,0.00,,,0.28,0,Wunderground v.1.15,2013-03-06 02:31:00,
2013-03-05 21:36:00,32.4,31.4,29.60,NNW,340,0.0,1.0,96,0.00,,,0.28,0,Wunderground v.1.15,2013-03-06 02:36:00,
2013-03-05 21:41:00,32.4,31.4,29.61,NNW,340,0.0,0.0,96,0.00,,,0.28,0,Wunderground v.1.15,2013-03-06 02:41:00,
2013-03-05 21:46:00,32.3,31.3,29.61,NNW,340,0.0,0.0,96,0.00,,,0.28,0,Wunderground v.1.15,2013-03-06 02:46:00,
2013-03-05 21:51:00,32.3,31.3,29.61,NNW,340,0.0,0.0,96,0.00,,,0.28,0,Wunderground v.1.15,2013-03-06 02:51:00,
2013-03-05 21:56:00,32.3,31.3,29.61,NNW,340,0.0,0.0,96,0.00,,,0.28,0,Wunderground v.1.15,2013-03-06 02:56:00,
2013-03-05 22:01:00,32.3,31.3,29.61,NNW,340,0.0,0.0,96,0.00,,,0.28,0,Wunderground v.1.15,2013-03-06 03:01:00,
2013-03-05 22:06:00,32.3,31.3,29.61,NNW,340,0.0,0.0,96,0.00,,,0.28,0,Wunderground v.1.15,2013-03-06 03:06:00,
2013-03-05 22:11:00,32.3,31.3,29.61,NNW,340,0.0,0.0,96,0.00,,,0.28,0,Wunderground v.1.15,2013-03-06 03:11:00,
2013-03-05 22:16:00,32.3,31.3,29.61,NNW,340,0.0,0.0,96,0.00,,,0.28,0,Wunderground v.1.15,2013-03-06 03:16:00,
2013-03-05 22:21:00,32.3,31.3,29.61,NNW,340,0.0,0.0,96,0.00,,,0.28,0,Wunderground v.1.15,2013-03-06 03:21:00,
2013-03-05 22:26:00,32.3,31.3,29.61,NNW,340,0.0,0.0,96,0.00,,,0.28,0,Wunderground v.1.15,2013-03-06 03:26:00,
2013-03-05 22:31:00,32.3,31.3,29.61,NNW,340,0.0,0.0,96,0.00,,,0.28,0,Wunderground v.1.15,2013-03-06 03:31:00,
2013-03-05 22:36:00,32.2,31.2,29.61,NNW,340,0.0,0.0,96,0.00,,,0.28,0,Wunderground v.1.15,2013-03-06 03:36:00,
2013-03-05 22:41:00,32.3,31.3,29.61,NNW,340,0.0,0.0,96,0.00,,,0.28,0,Wunderground v.1.15,2013-03-06 03:41:00,
2013-03-05 22:46:00,32.2,31.2,29.61,NNW,340,0.0,0.0,96,0.00,,,0.28,0,Wunderground v.1.15,2013-03-06 03:46:00,
2013-03-05 22:51:00,32.2,31.2,29.61,NNW,340,0.0,0.0,96,0.00,,,0.28,0,Wunderground v.1.15,2013-03-06 03:51:00,
2013-03-05 22:56:00,32.2,31.4,29.61,NNW,340,0.0,0.0,97,0.00,,,0.28,0,Wunderground v.1.15,2013-03-06 03:56:00,
2013-03-05 23:01:00,32.2,31.4,29.61,NNW,340,0.0,0.0,97,0.00,,,0.28,0,Wunderground v.1.15,2013-03-06 04:01:00,
2013-03-05 23:06:00,32.1,31.3,29.61,NNW,340,0.0,0.0,97,0.00,,,0.28,0,Wunderground v.1.15,2013-03-06 04:06:00,
2013-03-05 23:11:00,32.1,31.3,29.61,NNW,340,0.0,0.0,97,0.00,,,0.28,0,Wunderground v.1.15,2013-03-06 04:11:00,
2013-03-05 23:16:00,32.1,31.3,29.61,NNW,340,0.0,0.0,97,0.00,,,0.28,0,Wunderground v.1.15,2013-03-06 04:16:00,
2013-03-05 23:21:00,32.1,31.3,29.61,NNW,340,0.0,0.0,97,0.00,,,0.28,0,Wunderground v.1.15,2013-03-06 04:21:00,
2013-03-05 23:26:00,32.1,31.3,29.61,NNW,340,0.0,0.0,97,0.00,,,0.28,0,Wunderground v.1.15,2013-03-06 04:26:00,
2013-03-05 23:31:00,32.1,31.3,29.61,NNW,340,0.0,0.0,97,0.00,,,0.28,0,Wunderground v.1.15,2013-03-06 04:31:00,
2013-03-05 23:36:00,32.1,31.3,29.61,NNW,340,0.0,0.0,97,0.00,,,0.28,0,Wunderground v.1.15,2013-03-06 04:36:00,
2013-03-05 23:42:00,32.1,31.3,29.61,NNW,340,0.0,0.0,97,0.00,,,0.28,0,Wunderground v.1.15,2013-03-06 04:42:00,
2013-03-05 23:47:00,32.1,31.3,29.61,NNW,340,0.0,0.0,97,0.00,,,0.28,0,Wunderground v.1.15,2013-03-06 04:47:00,
2013-03-05 23:52:00,32.1,31.3,29.61,NNW,340,0.0,0.0,97,0.00,,,0.28,0,Wunderground v.1.15,2013-03-06 04:52:00,
2013-03-05 23:57:00,32.1,31.3,29.61,NNW,340,0.0,0.0,97,0.00,,,0.28,0,Wunderground v.1.15,2013-03-06 04:57:00,